Tracking 28125 objects as of 3-Oct-2023
HD Live streaming from Space Station
objects crossing your sky now

TITAN 34B AGENA D DEB

Track TITAN 34B AGENA D DEB now!
10-day predictions


NORAD ID: 23811
Int'l Code: 1983-078C
Perigee: 504.1 km
Apogee: 13,637.7 km
Inclination: 63.5 °
Period: 258.5 minutes
Semi major axis: 13441 km
RCS: Unknown
Launch date: July 31, 1983
Source: United States (US)
Launch site: AIR FORCE WESTERN TEST RANGE (AFWTR)

Note: This is SATELLITE DEBRIS
Your satellite tracking list
Your tracking list is empty




NASA's NSSDC Master Catalog

Two Line Element Set (TLE):
1 23811U 83078C   23275.40690474  .00006925  00000-0  10175-1 0  9991
2 23811  63.4843 320.5374 4885356 247.3895  54.9517  5.57073176 82345
Source of the keplerian elements: AFSPC